Columbia Airport, CA

4:03 PM PST on December 09, 2019 (GMT -0800)
Columbia Airport

Weather History for KO22 - October, 2019

Change the Weather History Date:

Wednesday, October 2, 2019

  Actual Average (KMOD) Record (KMOD)
Temperature  
Mean Temperature 56 °F -  
Max Temperature 73 °F 85 °F 99 °F (2012)
Min Temperature 39 °F 56 °F 41 °F (1950)
Degree Days  
Heating Degree Days 9 0  
Month to date heating degree days 0  
Since 1 July heating degree days 3  
Cooling Degree Days 0 6  
Month to date cooling degree days 12  
Year to date cooling degree days 1624  
Growing Degree Days 6 (Base 50)    
Moisture  
Dew Point 34 °F    
Average Humidity 51    
Maximum Humidity 81    
Minimum Humidity 20    
Precipitation  
Precipitation 0.00 in 0.02 in 1.13 in (1935)
Month to date precipitation 0.03  
Year to date precipitation 9.06  
Snow  
Snow 0.00 in - - ()
Month to date snowfall  
Since 1 July snowfall  
Since 1 September snowfall  
Snow Depth -    
Sea Level Pressure  
Sea Level Pressure 30.02 in    
Wind  
Wind Speed 1 mph (SW)    
Max Wind Speed 8 mph    
Max Gust Speed 12 mph    
Visibility 10 miles    
Events      
T = Trace of Precipitation, MM = Missing Value Source: NWS Daily Summary

Daily Weather History Graph

Daily Weather History Graph

Search for Another Location

Airport or City:

Astronomy

Oct. 02, 2019 Rise Set
Actual Time 6:58 AM PDT 6:43 PM PDT
Civil Twilight 6:31 AM PDT 7:09 PM PDT
Nautical Twilight 6:01 AM PDT 7:39 PM PDT
Astronomical Twilight 5:30 AM PDT 8:10 PM PDT
Moon 11:25 AM PDT (10/2) 9:45 PM PDT (10/2)
Length of Visible Light 12h 37m
Length of Day
11h 45m
Waxing Crescent, 21% of the Moon is Illuminated
Oct 2
Waxing Crescent
Oct 5
First Quarter
Oct 13
Full
Oct 21
Last Quarter
Oct 27
New

Hourly Weather History & Observations

Time (PDT) Temp. Windchill Dew Point Humidity Pressure Visibility Wind Dir Wind Speed Gust Speed Precip Events Conditions
12:15 AM 44.6 °F - 35.6 °F 71% 30.00 in 10.0 mi Calm Calm - N/A   Clear
12:35 AM 42.8 °F - 35.6 °F 76% 30.00 in 10.0 mi Calm Calm - N/A   Clear
12:55 AM 42.8 °F - 35.6 °F 76% 30.01 in 10.0 mi Calm Calm - N/A   Clear
1:15 AM 42.8 °F - 35.6 °F 76% 30.01 in 10.0 mi Calm Calm - N/A   Clear
1:35 AM 42.8 °F - 35.6 °F 76% 30.01 in 10.0 mi Calm Calm - N/A   Clear
1:55 AM 41.0 °F - 35.6 °F 81% 30.01 in 10.0 mi Calm Calm - N/A   Clear
2:35 AM 41.0 °F - 35.6 °F 81% 30.01 in 10.0 mi Calm Calm - N/A   Clear
2:55 AM 42.8 °F - 37.4 °F 81% 30.01 in 10.0 mi Calm Calm - N/A   Clear
3:15 AM 42.8 °F 41.1 °F 35.6 °F 76% 30.01 in 10.0 mi Variable 3.5 mph - N/A   Clear
3:35 AM 41.0 °F - 35.6 °F 81% 30.01 in 10.0 mi Calm Calm - N/A   Clear
3:55 AM 41.0 °F - 35.6 °F 81% 30.01 in 10.0 mi Calm Calm - N/A   Clear
4:15 AM 41.0 °F - 35.6 °F 81% 30.01 in 10.0 mi Calm Calm - N/A   Clear
4:35 AM 41.0 °F - 35.6 °F 81% 30.01 in 10.0 mi Calm Calm - N/A   Clear
4:55 AM 39.2 °F - 33.8 °F 81% 30.01 in 10.0 mi Calm Calm - N/A   Clear
5:15 AM 39.2 °F - 33.8 °F 81% 30.01 in 10.0 mi North - - N/A   Clear
5:35 AM 39.2 °F - 33.8 °F 81% 30.02 in 10.0 mi North - - N/A   Clear
5:55 AM 39.2 °F - 33.8 °F 81% 30.02 in 10.0 mi Calm Calm - N/A   Clear
6:15 AM 39.2 °F - 33.8 °F 81% 30.03 in 10.0 mi Calm Calm - N/A   Clear
6:35 AM 39.2 °F - 33.8 °F 81% 30.03 in 10.0 mi Calm Calm - N/A   Clear
6:55 AM 39.2 °F - 33.8 °F 81% 30.04 in 10.0 mi Calm Calm - N/A   Clear
7:15 AM 39.2 °F - 33.8 °F 81% 30.04 in 10.0 mi Calm Calm - N/A   Clear
7:35 AM 41.0 °F - 35.6 °F 81% 30.05 in 10.0 mi North - - N/A   Clear
7:55 AM 42.8 °F - 35.6 °F 76% 30.05 in 10.0 mi North - - N/A   Clear
8:15 AM 44.6 °F - 37.4 °F 76% 30.05 in 10.0 mi North - - N/A   Clear
8:35 AM 48.2 °F - 39.2 °F 71% 30.06 in 10.0 mi North - - N/A   Clear
8:55 AM 53.6 °F - 39.2 °F 58% 30.06 in 10.0 mi North - - N/A   Clear
9:15 AM 59.0 °F - 35.6 °F 42% 30.06 in 10.0 mi Calm Calm - N/A   Clear
9:35 AM 60.8 °F - 33.8 °F 36% 30.06 in 10.0 mi Calm Calm - N/A   Clear
9:55 AM 62.6 °F - 35.6 °F 37% 30.06 in 10.0 mi Calm Calm - N/A   Clear
10:15 AM 62.6 °F - 32.0 °F 32% 30.06 in 10.0 mi Calm Calm - N/A   Clear
10:35 AM 66.2 °F - 32.0 °F 28% 30.06 in 10.0 mi Variable 5.8 mph - N/A   Clear
10:55 AM 66.2 °F - 33.8 °F 30% 30.06 in 10.0 mi Calm Calm - N/A   Clear
11:15 AM 66.2 °F - 32.0 °F 28% 30.06 in 10.0 mi Variable 4.6 mph - N/A   Clear
11:35 AM 69.8 °F - 33.8 °F 27% 30.06 in 10.0 mi SW 4.6 mph - N/A   Clear
11:55 AM 69.8 °F - 35.6 °F 28% 30.06 in 10.0 mi Variable 6.9 mph - N/A   Clear
12:15 PM 69.8 °F - 33.8 °F 27% 30.06 in 10.0 mi Variable 3.5 mph - N/A   Clear
12:35 PM 69.8 °F - 32.0 °F 25% 30.06 in 10.0 mi Variable 3.5 mph - N/A   Clear
12:55 PM 71.6 °F - 32.0 °F 23% 30.05 in 10.0 mi Variable 6.9 mph - N/A   Clear
1:15 PM 71.6 °F - 30.2 °F 22% 30.05 in 10.0 mi Variable 4.6 mph - N/A   Clear
1:35 PM 71.6 °F - 30.2 °F 22% 30.03 in 10.0 mi Variable 4.6 mph - N/A   Clear
1:55 PM 73.4 °F - 30.2 °F 20% 30.03 in 10.0 mi Variable 4.6 mph - N/A   Clear
2:35 PM 71.6 °F - 30.2 °F 22% 30.02 in 10.0 mi Calm Calm - N/A   Clear
2:55 PM 73.4 °F - 32.0 °F 22% 30.01 in 10.0 mi Variable 5.8 mph - N/A   Clear
3:15 PM 73.4 °F - 32.0 °F 22% 30.01 in 10.0 mi SSW 4.6 mph - N/A   Clear
3:35 PM 73.4 °F - 32.0 °F 22% 30.00 in 10.0 mi Variable 3.5 mph - N/A   Clear
3:55 PM 73.4 °F - 32.0 °F 22% 30.00 in 10.0 mi Calm Calm - N/A   Clear
4:15 PM 73.4 °F - 32.0 °F 22% 30.00 in 10.0 mi Variable 4.6 mph 11.5 mph N/A   Clear
4:35 PM 73.4 °F - 32.0 °F 22% 30.00 in 10.0 mi SW 4.6 mph - N/A   Clear
4:55 PM 73.4 °F - 33.8 °F 23% 29.99 in 10.0 mi WSW 8.1 mph - N/A   Clear
5:15 PM 71.6 °F - 33.8 °F 25% 29.99 in 10.0 mi Variable 6.9 mph - N/A   Clear
5:35 PM 71.6 °F - 33.8 °F 25% 29.99 in 10.0 mi SW 5.8 mph - N/A   Clear
5:55 PM 71.6 °F - 33.8 °F 25% 29.99 in 10.0 mi SW 4.6 mph - N/A   Clear
6:15 PM 69.8 °F - 33.8 °F 27% 29.99 in 10.0 mi SW 3.5 mph - N/A   Clear
6:35 PM 68.0 °F - 32.0 °F 26% 29.99 in 10.0 mi SW 4.6 mph - N/A   Clear
6:55 PM 64.4 °F - 32.0 °F 30% 29.99 in 10.0 mi SSW 3.5 mph - N/A   Clear
7:15 PM 60.8 °F - 32.0 °F 34% 29.99 in 10.0 mi Calm Calm - N/A   Clear
7:35 PM 59.0 °F - 35.6 °F 42% 30.00 in 10.0 mi Calm Calm - N/A   Clear
7:55 PM 57.2 °F - 37.4 °F 48% 30.00 in 10.0 mi Variable 3.5 mph - N/A   Clear
8:15 PM 57.2 °F - 35.6 °F 44% 29.99 in 10.0 mi Calm Calm - N/A   Clear
8:35 PM 55.4 °F - 35.6 °F 47% 29.99 in 10.0 mi Calm Calm - N/A   Clear
8:55 PM 53.6 °F - 35.6 °F 51% 30.00 in 10.0 mi Calm Calm - N/A   Clear
9:15 PM 51.8 °F - 35.6 °F 54% 29.99 in 10.0 mi Calm Calm - N/A   Clear
9:35 PM 51.8 °F - 35.6 °F 54% 30.00 in 10.0 mi Variable 3.5 mph - N/A   Clear
9:55 PM 51.8 °F - 35.6 °F 54% 30.00 in 10.0 mi Calm Calm - N/A   Clear
10:15 PM 50.0 °F - 35.6 °F 58% 30.00 in 10.0 mi Variable 3.5 mph - N/A   Clear
10:35 PM 48.2 °F - 35.6 °F 62% 30.00 in 10.0 mi Calm Calm - N/A   Clear
10:55 PM 50.0 °F - 35.6 °F 58% 30.00 in 10.0 mi Calm Calm - N/A   Clear
11:15 PM 46.4 °F - 35.6 °F 66% 30.01 in 10.0 mi Calm Calm - N/A   Clear
11:35 PM 46.4 °F - 35.6 °F 66% 30.01 in 10.0 mi Calm Calm - N/A   Clear
11:55 PM 46.4 °F - 35.6 °F 66% 30.01 in 10.0 mi Calm Calm - N/A   Clear